Regional Weather Roundup
Issued by NWS

Home | Current Version | Previous Version | Graphics & Text | Print | Product List | Glossary On
Versions: 1 2 3 4 5 6 7 8 9 10 11 12 13 14 15 16 17 18 19 20 21 22 23 24 25 26 27 28 29 30 31 32 33 34 35 36 37 38 39 40 41 42 43 44 45 46 47 48 49 50
000
ASUS45 KCYS 010110
RWRWY

WYOMING REGIONAL WEATHER ROUNDUP
NATIONAL WEATHER SERVICE CHEYENNE WY
600 PM MST SAT JAN 31 2015

NOTE:  "FAIR" INDICATES FEW OR NO CLOUDS BELOW 12,000 FEET
WITH NO SIGNIFICANT WEATHER AND/OR OBSTRUCTIONS TO VISIBILITY.

WYZ001-010200-
YELLOWSTONE NATIONAL PARK

CITY           SKY/WX    TMP DP  RH WIND       PRES   REMARKS
LK YELLOWSTONE   N/A     22   9  57 VRB7      30.01R WCI  13
W YELLOWSTONE  NOT AVBL

$$
WYZ002>013-054>058-071-098>099-010200-
NORTHERN WYOMING

CITY           SKY/WX    TMP DP  RH WIND       PRES   REMARKS
JACKSON        CLEAR     32   9  37 W21       29.98S WCI  20
CODY           CLOUDY    23  21  93 N24       30.07R WCI   7
GREYBULL       FAIR      28  20  71 NW21G29   30.03R WCI  15
WORLAND        MOCLDY    30  22  72 NW12G18   30.03R WCI  20
SHERIDAN       LGT SNOW  24  19  81 NW23G32   30.13R WCI   9
BUFFALO        MIX PCPN  22  19  89 N31G47    30.01R FOG     WCI   4
GILLETTE       CLOUDY    25  21  85 NW18G28   30.01R WCI  11
HULETT           N/A    N/A N/A N/A MISG        N/A
NEWCASTLE      FLURRIES  32  27  80 NW9       29.95R WCI  24

$$
WYZ014>020-022>026-101>103-010200-
CENTRAL WYOMING

CITY           SKY/WX    TMP DP  RH WIND       PRES   REMARKS
BIG PINEY      FAIR      29  10  45 N16       29.98R WCI  17
PINEDALE       FAIR      25  10  54 NW13      29.97R WCI  13
DUBOIS         FAIR      30   7  37 NW21G26   29.92R WCI  17
LANDER         FAIR      32  17  54 NE10      29.95R WCI  24
RIVERTON       FAIR      32  20  61 NE14      29.95R WCI  22
CASPER         MOCLDY    29  21  72 N18G26    29.97R WCI  16
DOUGLAS        MOCLDY    32  22  66 N14G26    29.93R WCI  22

$$
WYZ021-027>030-104>119-010200-
SOUTHERN WYOMING

CITY           SKY/WX    TMP DP  RH WIND       PRES   REMARKS
EVANSTON       FAIR      34  22  61 N6        30.05R WCI  29
KEMMERER       FAIR      30  19  64 W7        30.02R WCI  23
FORT BRIDGER   FAIR      34  19  54 W13       30.05R WCI  25
ROCK SPRINGS   FAIR      34   5  29 W18G24    29.93R WCI  23
DIXON          CLOUDY    36  28  74 S13       29.92S WCI  27
RAWLINS        FAIR      30  19  63 NW7       29.87R WCI  23
SARATOGA       MOCLDY    32  27  80 SW5       29.86S WCI  27
LARAMIE        MOCLDY    30  16  56 N13       29.83R WCI  20
CHEYENNE       CLOUDY    31  27  85 N10       29.81R WCI  22
TORRINGTON     MOCLDY    31  24  75 NE9       29.87R WCI  23
PINE BLUFFS    CLOUDY    32  30  93 N3        29.84R

$$



USA.gov is the U.S. government's official web portal to all federal, state and local government web resources and services.